Probability
0 0 0 0 0 0 0 0 0 0 0 0 0 0 0 0 0 0 0 0 0 0 0 0 0 0 0 0 0 0 0 0 0 0 0 0 0 0
0 0 0 0 0 0 0 0 0 0 0 0 0 0 0 0 0 0 0 0 0 0 0 0 0 0 0 0 0 0 0 0 0 0 0 0 0 0
0 0 0 0 0 0 0 0 0 0 0 0 0 0 0 0 0 0 0 0 0 0 0 0 0 0 0 0 0 0 0 0 0 0 0 0 0 0
0 0 0 0 0 0 0 0 0 0 0 0 0 0 0 0 0 0 0 0 0 0 0 0 0 0 0 0 0 0 0 0 0 0 0 0 0 0
0 0 0 0 0 0 0 0 0 0 0 0 0 0 0 0 0 0 0 0 0 0 0 0 0 0 0 0 0 0 0 0 0 0 0 0 0 0
0 0 0 0 0 0 0 0 0 0 0 0 0 0 0 0 0 0 0 0 0 0 0 0 0 0 0 0 0 0 0 0 0 0 0 0 0 0
0 0 0 0 0 0 0 0 0 0 0 0 0 0 0 0 0 0 0 0 0 0 0 0 0 0 0 0 0 0 0 0 0 0 0 0 0 0
0 0 0 0 0 0 0 0 0 0 0 0 0 0 0 0 0 0 0 0 0 0 0 0 0 0 0 0 0 0 0 0 0 0 0 0 0 0
0 0 0 0 0 0 0 0 0 0 0 0 0 0 0 0 0 0 0 0 0 0 0 0 0 0 0 0 0 0 0 0 0 0 0 0 0 0
0 0 0 0 0 0 0 0 0 0 0 0 0 0 0 0 0 0 0 0 0 0 0 0 0 0 0 0 0 0 0 0 0 0 0 0 0 0
0 0 0 0 0 0 0 0 0 0 0 0 0 0 0 0 0 0 0 0 0 0 0 0 0 0 0 0 0 0 0 0 0 0 0 0 0 0
0 0 0 0 0 0 0 0 0 0 0 0 0 0 0 0 0 0 0 0 0 0 0 0 0 0 0 0 0 0 0 0 0 0 0 0 0 0
0 0 0 0 0 0 0 0 0 0 0 0 0 0 0 0 0 0 0 0 0 0 0 0 0 0 0 0 0 0 0 0 0 0 0 0 0 0
0 0 0 0 0 0 0 0 0 0 0 0 0 0 0 0 0 0 0 0 0 0 0 0 0 0 0 0 0 0 0 0 0 0 0 0 0 0
0 0 0 0 0 0 0 0 0 0 0 0 0 0 0 0 0 0 0 0 0 0 0 0 0 0 0 0 0 0 0 0 0 0 0 0 0 0
0 0 0 0 0 0 0 0 0 0 0 0 0 0 0 0 0 0 0 0 0 0 0 0 0 0 0 0 0 0 0 0 0 0 0 0 0 0
0 0 0 0 0 0 0 0 0 0 0 0 0 0 0 0 0 0 0 0 0 0 0 0 0 0 0 0 0 0 0 0 0 0 0 0 0 0
0 0 0 0 0 0 0 0 0 0 0 0 0 0 0 0 0 0 0 0 0 0 0 0 0 0 0 0 0 0 0 0 0 0 0 0 0 0
0 0 0 0 0 0 0 0 0 0 0 0 0 0 0 0 0 0 0 0 0 0 0 0 0 0 0 0 0 0 0 0 0 0 0 0 0 0
0 0 0 0 0 0 0 0 0 0 0 0 0 0 0 0 0 0 0 0 0 0 0 0 0 0 0 0 0 0 0 0 0 0 0 0 0 0
0 0 0 0 0 0 0 0 0 0 0 0 0 0 0 0 0 0 0 0 0 0 0 0 0 0 0 0 0 0 0 0 0 0 0 0 0 0
0 0 0 0 0 0 0 0 0 0 0 0 0 0 0 0 0 0 0 0 0 0 0 0 0 0 0 0 0 0 0 0 0 0 0 0 0 0
0 0 0 0 0 0 0 0 0 0 0 0 0 0 0 0 0 0 0 0 0 0 0 0 0 0 0 0 0 0 0 0 0 0 0 0 0 0
Height
5758 5759 5760 5760 5760 5760 5759 5758 5757 5755 5752 5749 5746 5742 5739 5735 5730 5725 5720 5715 5709 5702 5696 5689 5682 5674 5667 5659 5650 5642 5633 5624 5614 5605 5595 5585 5576 5566
5750 5751 5752 5753 5753 5752 5751 5750 5749 5747 5745 5742 5738 5734 5730 5726 5721 5717 5711 5706 5700 5694 5687 5680 5673 5665 5657 5649 5640 5631 5622 5613 5603 5593 5583 5573 5563 5553
5742 5744 5745 5745 5745 5744 5744 5742 5741 5739 5737 5734 5730 5726 5722 5718 5713 5708 5703 5697 5691 5685 5678 5671 5663 5656 5647 5639 5630 5621 5611 5601 5591 5581 5570 5561 5550 5541
5734 5736 5737 5737 5737 5737 5736 5734 5733 5730 5728 5726 5722 5718 5714 5709 5704 5699 5694 5688 5682 5676 5669 5662 5654 5646 5637 5629 5619 5610 5600 5589 5579 5568 5558 5549 5539 5528
5726 5727 5728 5729 5729 5729 5728 5726 5724 5722 5720 5717 5714 5710 5705 5701 5696 5691 5685 5680 5673 5666 5659 5652 5644 5636 5627 5618 5608 5599 5588 5578 5568 5557 5546 5536 5526 5516
5718 5719 5720 5721 5721 5720 5719 5718 5716 5714 5711 5709 5705 5701 5697 5692 5688 5683 5677 5670 5664 5657 5649 5642 5634 5626 5617 5608 5598 5588 5577 5566 5555 5544 5534 5524 5514 5504
5710 5711 5712 5713 5713 5712 5711 5710 5708 5706 5703 5700 5697 5693 5689 5684 5679 5674 5668 5662 5655 5648 5640 5633 5625 5616 5607 5597 5587 5576 5565 5554 5543 5532 5522 5512 5502 5492
5701 5703 5704 5705 5705 5704 5703 5701 5700 5697 5695 5692 5688 5685 5680 5676 5671 5665 5659 5654 5648 5641 5632 5623 5614 5605 5596 5586 5575 5564 5553 5542 5531 5521 5511 5501 5491 5482
5693 5694 5695 5696 5696 5696 5695 5693 5691 5689 5686 5684 5680 5676 5672 5667 5662 5657 5651 5644 5637 5630 5622 5613 5604 5594 5584 5574 5564 5553 5542 5531 5521 5511 5501 5491 5482 5472
5684 5686 5687 5688 5687 5687 5686 5685 5683 5681 5678 5675 5672 5668 5663 5658 5653 5648 5642 5635 5628 5620 5612 5604 5594 5584 5573 5563 5552 5542 5532 5521 5511 5501 5492 5482 5472 5463
5676 5677 5679 5679 5679 5678 5677 5676 5674 5672 5669 5666 5663 5659 5655 5650 5645 5640 5633 5627 5620 5611 5603 5594 5585 5575 5564 5553 5542 5532 5522 5512 5502 5492 5483 5473 5463 5454
5667 5669 5670 5670 5670 5669 5669 5668 5666 5664 5661 5658 5655 5651 5647 5642 5637 5631 5625 5618 5610 5603 5594 5585 5575 5566 5557 5545 5533 5523 5513 5503 5493 5483 5474 5464 5455 5446
5658 5660 5661 5661 5661 5661 5660 5659 5658 5656 5653 5650 5646 5643 5639 5634 5628 5622 5616 5609 5601 5593 5584 5575 5566 5556 5546 5537 5526 5515 5505 5495 5485 5476 5466 5457 5447 5438
5649 5651 5652 5653 5653 5652 5652 5651 5649 5647 5644 5642 5639 5635 5631 5626 5620 5614 5607 5600 5592 5584 5575 5565 5556 5547 5537 5528 5518 5508 5497 5488 5478 5469 5459 5450 5440 5431
5640 5642 5643 5644 5644 5644 5643 5642 5641 5639 5636 5634 5630 5627 5622 5617 5611 5605 5598 5590 5583 5575 5566 5557 5547 5538 5529 5519 5510 5501 5491 5482 5472 5463 5453 5444 5434 5425
5631 5633 5634 5635 5635 5635 5634 5633 5632 5630 5628 5626 5622 5618 5614 5609 5603 5596 5589 5581 5573 5565 5557 5548 5539 5530 5521 5512 5503 5494 5484 5476 5467 5457 5447 5438 5428 5419
5622 5624 5626 5627 5627 5627 5626 5625 5624 5622 5620 5617 5614 5610 5605 5600 5594 5588 5581 5573 5565 5557 5549 5540 5531 5522 5513 5505 5497 5488 5479 5470 5461 5452 5442 5432 5423 5415
5614 5616 5617 5618 5618 5618 5618 5617 5616 5614 5612 5609 5605 5601 5597 5592 5586 5579 5572 5565 5557 5549 5541 5533 5525 5516 5508 5499 5492 5483 5474 5465 5456 5447 5437 5429 5420 5412
5605 5607 5609 5610 5610 5610 5610 5609 5608 5606 5603 5600 5597 5593 5588 5583 5577 5570 5564 5557 5549 5542 5534 5526 5518 5511 5503 5495 5486 5478 5469 5460 5451 5442 5433 5425 5417 5409
5597 5599 5600 5601 5602 5602 5602 5601 5599 5598 5595 5592 5589 5585 5580 5574 5568 5562 5556 5548 5541 5534 5527 5519 5512 5505 5497 5490 5481 5473 5465 5456 5447 5438 5430 5422 5414 5406
5589 5591 5592 5593 5594 5594 5593 5593 5592 5590 5587 5584 5581 5576 5572 5566 5560 5554 5548 5541 5534 5527 5520 5514 5506 5500 5492 5484 5477 5469 5460 5452 5444 5436 5428 5420 5412 5405
5580 5582 5583 5585 5585 5586 5585 5585 5584 5582 5580 5576 5573 5568 5563 5558 5552 5546 5540 5533 5527 5520 5514 5508 5501 5495 5488 5480 5472 5464 5456 5448 5440 5433 5425 5418 5411 5403
5571 5574 5575 5577 5577 5578 5578 5577 5576 5574 5571 5568 5564 5560 5555 5550 5544 5539 5533 5526 5521 5515 5509 5503 5496 5490 5483 5475 5468 5460 5452 5445 5438 5430 5423 5416 5409 5402
Wind_Speed
38 37 36 36 36 37 37 36 36 36 37 39 40 41 42 43 44 45 45 46 47 48 49 50 51 52 53 54 55 57 58 59 60 61 61 61 61 60
38 37 36 36 36 36 36 36 36 37 38 39 40 41 42 43 44 45 45 46 47 48 50 51 52 53 54 55 56 58 59 61 61 61 62 62 61 61
38 37 37 37 36 36 36 36 37 38 38 39 40 41 43 44 44 45 45 46 47 49 50 51 52 53 54 55 57 59 61 61 61 62 62 61 61 61
39 38 38 37 37 36 36 37 38 38 39 39 40 41 43 44 44 44 45 46 48 49 50 51 52 53 55 57 59 60 61 62 62 63 62 62 61 59
39 39 38 38 37 37 37 38 38 39 39 40 41 42 42 43 44 45 46 47 48 49 51 52 53 54 56 58 59 61 62 63 63 62 61 60 59 58
40 39 39 39 38 38 38 38 39 40 40 40 41 42 42 43 44 45 46 47 48 49 51 52 53 55 57 59 60 61 62 63 62 61 60 59 58 56
40 39 39 39 39 40 39 39 40 40 39 40 40 41 42 43 44 45 46 47 48 49 51 52 54 56 58 59 61 62 62 62 61 60 58 58 56 54
41 40 40 39 39 40 39 39 39 38 39 39 40 41 42 43 44 45 46 47 48 50 51 53 55 57 58 60 61 62 61 60 59 57 56 55 53 53
41 41 40 39 39 39 38 38 37 37 38 39 41 41 42 42 44 45 46 47 49 50 52 54 56 57 59 61 61 60 59 58 56 55 54 53 52 52
41 40 38 38 38 37 37 37 37 37 38 40 40 41 41 42 43 44 45 47 49 51 52 53 55 58 60 60 59 58 57 56 54 53 52 52 52 51
40 39 38 37 37 37 37 37 37 37 38 39 39 39 40 41 42 43 45 47 49 51 52 54 55 58 59 58 57 57 56 54 53 52 52 51 51 50
40 39 38 38 37 37 36 36 36 36 37 38 37 38 39 40 42 43 45 47 49 50 52 54 56 57 56 55 55 55 54 53 52 51 50 50 50 49
39 38 37 37 37 37 36 36 36 36 36 36 36 37 38 40 42 44 46 47 49 50 52 54 55 55 55 53 52 52 51 50 49 49 49 49 48 47
39 37 36 36 36 36 37 37 36 36 36 36 36 37 38 40 41 43 45 47 48 50 52 53 53 53 53 51 50 49 48 47 47 48 48 48 48 46
38 37 37 36 36 37 37 37 36 36 36 36 37 37 38 40 42 44 46 47 49 50 52 52 52 52 51 50 48 47 46 46 46 47 48 48 46 43
37 37 36 36 36 36 36 36 35 36 36 36 37 38 39 40 42 44 46 47 49 50 50 50 50 49 48 47 46 45 45 44 45 47 47 46 43 41
35 35 35 35 35 35 34 34 34 35 36 36 37 38 39 41 43 44 45 46 48 48 48 48 47 46 46 45 44 44 43 44 45 45 46 43 40 39
34 33 33 33 34 33 33 33 33 34 35 35 36 38 39 41 42 43 44 46 47 46 46 45 44 43 43 42 43 43 43 43 44 44 43 40 38 37
34 33 33 33 33 32 32 32 32 32 33 34 36 38 39 40 41 42 44 45 45 44 44 43 41 41 41 41 42 41 42 42 43 42 40 38 37 36
33 33 32 32 31 31 31 31 31 31 32 33 35 37 38 39 40 42 43 43 43 42 41 40 39 39 39 40 40 40 41 41 41 40 39 37 36 35
32 32 32 31 30 30 30 30 30 31 32 33 34 36 37 39 40 41 41 41 41 40 39 38 37 37 38 39 39 39 40 39 38 37 36 35 34 33
31 31 30 29 29 28 28 28 30 31 32 33 34 35 36 37 38 40 40 39 38 37 36 35 35 36 37 37 37 38 38 37 36 35 34 33 31 30
31 30 29 28 27 27 27 28 29 30 31 32 33 34 35 36 37 38 37 36 35 34 33 34 34 35 36 36 36 36 36 35 34 33 32 31 30 29
Wind_Direction
257 260 264 267 270 273 275 278 281 284 287 290 292 294 296 298 300 303 305 307 309 311 311 312 313 314 314 314 315 316 316 316 316 315 315 315 314 313
256 260 264 267 270 272 275 277 281 285 287 290 292 295 297 299 301 303 305 307 309 311 311 312 313 314 314 315 315 316 316 316 316 315 315 315 314 314
256 260 263 267 270 273 275 278 282 286 288 290 293 295 297 299 301 303 305 307 309 310 311 312 313 314 314 315 316 316 316 316 316 316 316 316 315 314
256 260 263 266 269 273 276 280 283 286 289 291 294 296 298 299 301 303 305 307 309 310 311 312 313 314 315 316 316 316 316 317 316 317 317 316 316 315
256 259 263 266 269 272 276 280 283 286 289 292 294 296 298 299 301 304 306 307 309 310 311 313 314 315 316 316 316 317 317 317 317 317 317 316 316 315
256 259 262 266 269 273 276 280 283 286 289 292 294 296 298 300 302 304 306 308 309 310 312 313 314 315 316 316 317 317 318 318 318 318 317 317 317 316
257 260 263 266 270 273 277 281 284 286 289 292 295 297 298 300 302 304 306 308 309 311 312 313 314 315 316 317 318 318 318 318 318 318 318 318 318 317
258 260 263 267 270 274 277 281 284 287 290 293 295 297 299 301 303 305 307 308 309 311 312 313 315 316 317 318 319 319 319 320 319 319 319 319 319 319
258 261 263 266 270 273 278 281 284 287 291 293 296 298 300 301 303 305 307 309 310 312 313 315 316 317 318 319 320 320 321 321 321 321 321 321 320 320
259 261 264 267 271 274 277 281 284 287 291 293 296 298 299 301 303 306 308 310 311 313 314 316 317 318 319 320 321 321 322 322 322 322 322 322 322 322
260 262 265 269 272 275 278 281 284 287 290 294 296 298 300 302 305 307 309 311 312 314 315 316 317 319 320 321 321 322 322 322 322 322 322 323 323 323
259 262 265 269 272 275 279 282 285 288 291 294 296 299 301 303 305 308 310 312 313 315 316 317 318 320 321 322 322 322 323 323 323 323 324 324 324 325
259 262 265 268 271 275 277 281 285 288 292 294 296 299 301 303 306 309 311 313 314 315 317 318 319 321 322 323 322 323 324 324 324 325 326 326 326 326
258 260 264 268 271 274 277 280 284 288 292 294 297 300 302 305 308 310 312 313 314 316 318 319 320 322 323 323 323 324 325 326 326 327 328 328 328 327
257 260 263 267 270 273 275 279 283 287 291 294 297 299 303 306 309 311 312 313 315 317 319 320 321 322 323 323 324 325 326 327 328 329 330 330 330 329
256 260 263 266 270 272 275 279 282 286 290 293 296 299 302 306 309 311 312 314 316 318 320 321 322 323 324 325 326 327 328 329 330 331 332 333 333 332
256 259 263 267 270 273 276 279 283 286 289 293 296 299 302 306 309 311 313 315 317 319 320 321 322 323 325 327 328 328 329 331 332 333 334 335 335 336
256 261 265 268 270 274 276 280 283 286 289 293 296 299 303 306 309 311 314 316 318 319 320 321 321 323 325 327 328 330 331 332 333 335 336 337 337 338
257 261 264 266 270 272 276 280 284 287 290 294 297 301 304 307 309 312 314 316 318 319 320 321 322 324 326 327 329 331 332 333 335 337 338 338 338 339
257 260 263 267 269 272 275 279 284 289 292 295 298 301 305 308 310 313 314 316 317 318 319 321 323 325 327 328 330 331 333 335 336 337 338 339 339 341
255 258 262 265 267 271 275 279 284 289 293 296 299 303 307 309 311 313 314 316 317 318 320 322 324 326 328 329 330 332 334 336 337 338 339 340 341 343
253 256 259 262 266 271 275 281 286 289 293 298 301 305 307 310 312 314 315 316 317 318 321 323 325 327 329 330 331 332 334 335 337 339 340 342 344 346
251 253 256 261 266 272 277 282 286 289 293 298 302 306 309 311 313 315 316 316 317 320 322 324 326 328 329 331 332 334 335 336 338 340 342 345 348 350